#timestamp,LO_Frequency,Hit,StdDev 
1607814015.0,286046999.9,N
1607814015.9,286046999.9,N
1607814035.7,286047002.3,N
1607814055.6,286047000.4,N
1607814075.4,286047000.1,N
1607814095.2,286047000.4,N
1607814115.1,286046999.7,N
1607814116.0,286046999.7,N
1607814135.8,286047002.5,N
1607814155.6,286047002.5,N
1607814175.5,286047004.2,Y
1607814195.3,286047004.0,P
1607814215.1,286047001.8,N
1607814235.9,286047001.6,N
1607814255.7,286047002.1,N
1607814275.5,286047001.7,N
1607814295.4,286047004.3,Y
1607814315.2,286046999.9,P
1607814335.0,286047001.7,N
1607814335.9,286047001.7,N
1607814355.8,286047001.9,N
1607814375.6,286047002.1,N
1607814395.4,286047001.7,N
1607814415.3,286047001.3,N
1607814435.1,286047001.4,N
1607814455.8,286047002.4,Y
1607814475.7,286047000.4,P
1607814495.5,286047002.6,P
1607814515.3,286047002.3,N
1607814535.2,286047002.8,Y
1607814555.0,286047000.8,P
1607814555.9,286047000.8,N
1607814575.7,286047000.8,N
1607814595.6,286047001.2,N
1607814615.4,286046998.1,Y
1607814635.2,286046998.7,P
1607814655.1,286046999.1,N
1607814656.0,286046999.1,N
1607814675.8,286047001.2,N
1607814695.6,286047001.2,N
1607814715.5,286047000.7,N
1607814735.3,286047000.1,N
1607814755.1,286047000.0,N
1607814775.9,286047000.1,N
1607814795.7,286047000.4,N
1607814815.5,286047002.8,Y
1607814835.4,286047002.8,P
1607814855.2,286047002.3,N
1607814875.0,286047002.4,N
1607814876.0,286047002.4,N
1607814895.8,286047000.9,N
1607814915.6,286046999.8,N
1607814935.4,286047000.0,N
1607814955.3,286047000.0,N
1607814975.1,286047002.4,N
1607814995.8,286047002.8,N
1607815015.7,286047002.2,N
1607815035.5,286047001.3,N
1607815055.3,286047001.7,N
1607815075.2,286047004.1,Y
1607815095.0,286047002.8,P
1607815095.9,286047002.8,P
1607815115.7,286047002.0,P
1607815135.6,286047002.2,Y
1607815155.4,286046998.3,P
1607815175.2,286046998.7,N
1607815195.1,286046999.0,N
1607815196.0,286046999.0,N
1607815215.8,286046997.3,N
1607815235.6,286046999.0,N
1607815255.5,286046996.6,N
1607815275.3,286046998.6,N
1607815295.1,286047001.2,N
1607815315.9,286046998.5,N
1607815335.7,286046998.4,N
1607815355.5,286046998.9,N
1607815375.4,286046998.8,N
1607815395.2,286047001.2,N
1607815415.0,286046999.0,N
1607815415.9,286046999.0,N
1607815435.8,286046999.1,N
1607815455.6,286046996.6,N
1607815475.4,286046998.7,N
1607815495.3,286046996.7,N
1607815515.1,286046999.5,N
1607815535.8,286046996.8,N
1607815555.7,286046998.1,N
1607815575.5,286046998.8,N
1607815595.3,286046999.4,N
1607815615.2,286046999.4,N
1607815635.0,286046999.4,N
1607815635.9,286046999.4,N
1607815655.7,286046996.6,N
1607815675.6,286046998.7,N
1607815695.4,286046998.9,N
1607815715.2,286046998.5,N
1607815735.1,286046998.4,N
1607815736.0,286046998.4,N
1607815755.8,286047001.2,N
1607815775.6,286047001.2,N
1607815795.5,286046998.7,N
1607815815.3,286046999.4,N
1607815835.1,286046999.6,N
1607815855.9,286046999.6,N
1607815875.7,286046998.9,N
1607815895.5,286046996.7,N
1607815915.4,286046996.8,N
1607815935.2,286046996.8,N
1607815955.0,286046996.7,N
1607815955.9,286046996.7,N
1607815975.8,286046996.8,N
1607815995.6,286046996.7,N
1607816015.4,286046997.2,N
1607816035.3,286046997.8,N
1607816055.1,286046997.5,N
1607816075.8,286046999.1,N
1607816095.7,286046999.0,N
1607816115.5,286046999.6,N
1607816135.3,286046998.5,N
1607816155.2,286046999.5,N
1607816175.0,286046999.5,N
1607816175.9,286046999.5,N
1607816195.7,286046997.4,N
1607816215.6,286046997.1,N
1607816235.4,286046996.5,N
1607816255.2,286046995.1,Y
1607816275.1,286046999.4,P
1607816276.0,286046999.4,N
1607816295.8,286046997.3,P
1607816315.6,286046996.8,Y
1607816335.5,286046998.6,P
1607816355.3,286046998.3,P
1607816375.1,286046998.2,P
1607816395.9,286047000.2,N
1607816415.7,286047000.8,N
1607816435.5,286046999.1,N
1607816455.4,286046996.5,Y
1607816475.2,286046998.5,P
1607816495.0,286047000.6,N
1607816495.9,286047000.6,N
1607816515.8,286046998.9,N
1607816535.6,286046998.8,N
1607816555.4,286046999.3,N
1607816575.3,286046999.6,N
1607816595.1,286046996.8,Y
1607816615.8,286046998.5,P
1607816635.7,286046999.4,N
1607816655.5,286046999.1,N
1607816675.3,286046995.4,Y
1607816695.2,286046996.9,P
1607816715.0,286046999.2,N
1607816715.9,286046999.2,N
1607816735.7,286047001.2,N
1607816755.6,286046999.2,N
1607816775.4,286046997.8,N
1607816795.2,286046997.7,N
1607816815.1,286046998.0,N
1607816816.0,286046998.0,N
1607816835.8,286046997.1,N
1607816855.6,286046997.5,N
1607816875.5,286046997.1,N
1607816895.3,286046996.7,N
1607816915.1,286046997.2,N
1607816935.9,286046998.0,N
1607816955.7,286046998.0,N
1607816975.5,286046995.0,Y
1607816995.4,286046999.6,P
1607817015.2,286046997.4,P
1607817035.0,286046997.0,P
1607817035.9,286046997.0,Y
1607817055.8,286047000.7,P
1607817075.6,286047001.1,N
1607817095.4,286046997.0,N
1607817115.3,286046999.1,N
1607817135.1,286046999.1,N
1607817155.8,286046996.8,N
1607817175.7,286046995.3,Y
1607817195.5,286046997.2,P
1607817215.3,286046996.9,P
1607817235.2,286046996.7,P
1607817255.0,286046996.6,Y
1607817255.9,286046996.6,P
1607817275.7,286047000.4,N
1607817295.6,286047001.0,N
1607817315.4,286047000.6,N
1607817335.2,286046999.8,N
1607817355.1,286047000.7,N
1607817356.0,286047000.7,N
1607817375.8,286047000.7,N
1607817395.6,286046998.4,N
1607817415.5,286046996.5,N
1607817435.3,286046997.0,N
1607817455.1,286046998.1,N
1607817475.9,286046999.6,N
1607817495.7,286046996.7,N
1607817515.5,286046997.7,N
1607817535.4,286046997.7,N
1607817555.2,286046997.5,N
1607817575.0,286046995.1,Y
1607817575.9,286046995.1,P
1607817595.8,286046998.0,N
